| time (UTC) | temp C | wind direction | speed KPH | gust KPH | rain 1hr cm | rain 24hr cm | rain mn cm | humidity % | barometer mb |
| 20260510184602 | 21 | 106 | 0.0 | 6.4 | 0.00 | 0.71 | 0.03 | 56 | 1011.7 |
| 20260510183100 | 21 | 94 | 1.6 | 8.0 | 0.00 | 0.71 | 0.03 | 55 | 1011.7 |
| 20260510181601 | 21 | 13 | 0.0 | 4.8 | 0.00 | 0.71 | 0.03 | 56 | 1011.5 |
| 20260510180052 | 21 | 67 | 1.6 | 11.3 | 0.00 | 0.71 | 0.03 | 62 | 1011.5 |
| 20260510174552 | 21 | 150 | 1.6 | 14.5 | 0.00 | 0.71 | 0.03 | 65 | 1011.3 |
| 20260510173048 | 21 | 133 | 3.2 | 14.5 | 0.00 | 0.71 | 0.03 | 67 | 1011.2 |
| 20260510171551 | 21 | 143 | 1.6 | 14.5 | 0.00 | 0.71 | 0.03 | 69 | 1011.2 |
| 20260510170054 | 20 | 152 | 8.0 | 16.1 | 0.00 | 0.71 | 0.03 | 69 | 1011.5 |
| 20260510164543 | 19 | 169 | 1.6 | 8.0 | 0.00 | 0.71 | 0.03 | 73 | 1011.7 |
| 20260510163038 | 18 | 206 | 1.6 | 12.9 | 0.00 | 0.71 | 0.03 | 74 | 1011.7 |
| 20260510161537 | 18 | 141 | 1.6 | 14.5 | 0.00 | 0.71 | 0.03 | 76 | 1011.9 |
| 20260510160038 | 17 | 135 | 3.2 | 9.7 | 0.00 | 0.71 | 0.03 | 76 | 1012.1 |
| 20260510154530 | 17 | 173 | 3.2 | 9.7 | 0.00 | 0.71 | 0.03 | 78 | 1011.9 |
| 20260510153033 | 16 | 172 | 3.2 | 12.9 | 0.00 | 0.71 | 0.03 | 80 | 1012.2 |
| 20260510151522 | 16 | 129 | 6.4 | 11.3 | 0.03 | 0.71 | 0.03 | 82 | 1012.1 |
| 20260510150032 | 15 | 162 | 3.2 | 9.7 | 0.03 | 0.71 | 0.03 | 83 | 1012.2 |
| 20260510144521 | 15 | 160 | 3.2 | 8.0 | 0.03 | 0.71 | 0.03 | 84 | 1012.4 |
| 20260510143019 | 14 | 165 | 0.0 | 8.0 | 0.03 | 0.71 | 0.03 | 86 | 1012.1 |
| 20260510141523 | 13 | 170 | 3.2 | 8.0 | 0.00 | 0.69 | 0.00 | 87 | 1012.2 |
| 20260510140007 | 13 | 176 | 3.2 | 8.0 | 0.00 | 0.69 | 0.00 | 91 | 1012.2 |
| 20260510134505 | 12 | 126 | 3.2 | 6.4 | 0.00 | 0.69 | 0.00 | 92 | 1012.2 |
| 20260510133100 | 12 | 83 | 0.0 | 3.2 | 0.00 | 0.69 | 0.00 | 94 | 1012.2 |
| 20260510131558 | 11 | 83 | 1.6 | 4.8 | 0.00 | 0.69 | 0.00 | 95 | 1012.2 |
| 20260510130056 | 11 | 33 | 0.0 | 3.2 | 0.00 | 0.69 | 0.00 | 96 | 1011.8 |
| 20260510124600 | 11 | 33 | 0.0 | 3.2 | 0.00 | 0.69 | 0.00 | 96 | 1011.8 |
| 20260510123054 | 11 | 33 | 0.0 | 1.6 | 0.00 | 0.69 | 0.00 | 97 | 1011.8 |
| 20260510121550 | 11 | 33 | 0.0 | 3.2 | 0.00 | 0.69 | 0.00 | 96 | 1011.8 |
| 20260510120049 | 11 | 25 | 0.0 | 3.2 | 0.00 | 0.69 | 0.00 | 96 | 1011.5 |
| 20260510114547 | 10 | 25 | 0.0 | 3.2 | 0.00 | 0.69 | 0.00 | 96 | 1011.1 |
| 20260510113048 | 10 | 25 | 0.0 | 1.6 | 0.00 | 0.69 | 0.00 | 97 | 1011.3 |
| 20260510111544 | 10 | 25 | 0.0 | 3.2 | 0.00 | 0.69 | 0.00 | 97 | 1011.1 |
| 20260510110044 | 10 | 25 | 0.0 | 0.0 | 0.00 | 0.69 | 0.00 | 96 | 1011.0 |
| 20260510104544 | 10 | 25 | 0.0 | 0.0 | 0.00 | 0.69 | 0.00 | 96 | 1010.7 |
| 20260510103050 | 10 | 25 | 0.0 | 0.0 | 0.00 | 0.69 | 0.00 | 96 | 1010.7 |
| 20260510101545 | 10 | 25 | 0.0 | 0.0 | 0.00 | 0.69 | 0.00 | 96 | 1010.7 |
| 20260510100041 | 10 | 25 | 0.0 | 3.2 | 0.00 | 0.69 | 0.00 | 96 | 1010.7 |
| 20260510094545 | 10 | 25 | 0.0 | 0.0 | 0.00 | 0.69 | 0.00 | 96 | 1010.6 |
| 20260510093040 | 10 | 25 | 0.0 | 3.2 | 0.00 | 0.69 | 0.00 | 96 | 1010.5 |
| 20260510091539 | 10 | 25 | 0.0 | 0.0 | 0.00 | 0.69 | 0.00 | 96 | 1010.7 |
| 20260510090042 | 10 | 25 | 0.0 | 3.2 | 0.00 | 0.69 | 0.00 | 96 | 1010.8 |
| 20260510084538 | 10 | 25 | 0.0 | 3.2 | 0.00 | 0.69 | 0.00 | 96 | 1011.0 |
| 20260510083037 | 10 | 25 | 0.0 | 0.0 | 0.00 | 0.69 | 0.00 | 96 | 1011.0 |
| 20260510081542 | 10 | 25 | 0.0 | 3.2 | 0.00 | 0.69 | 0.00 | 96 | 1011.0 |
| 20260510080039 | 10 | 32 | 3.2 | 9.7 | 0.00 | 0.69 | 0.00 | 96 | 1011.0 |
| 20260510074533 | 10 | 352 | 1.6 | 8.0 | 0.00 | 0.69 | 0.00 | 96 | 1010.8 |
| 20260510073031 | 10 | 187 | 0.0 | 0.0 | 0.00 | 0.69 | 0.00 | 96 | 1010.1 |
| 20260510071531 | 10 | 187 | 0.0 | 0.0 | 0.00 | 0.69 | 0.00 | 96 | 1010.2 |
| 20260510070034 | 11 | 187 | 0.0 | 0.0 | 0.00 | 0.69 | 0.00 | 96 | 1010.4 |
| 20260510064528 | 11 | 187 | 0.0 | 0.0 | 0.00 | 0.71 | 0.00 | 96 | 1010.3 |
| 20260510063029 | 11 | 187 | 0.0 | 0.0 | 0.00 | 0.71 | 0.00 | 96 | 1010.4 |
| 20260510061529 | 11 | 187 | 0.0 | 0.0 | 0.00 | 0.71 | 0.00 | 96 | 1010.3 |
| 20260510060026 | 11 | 187 | 0.0 | 0.0 | 0.00 | 0.71 | 0.00 | 96 | 1010.3 |
| 20260510054528 | 11 | 187 | 0.0 | 0.0 | 0.00 | 0.71 | 0.00 | 96 | 1010.0 |
| 20260510053023 | 11 | 187 | 0.0 | 0.0 | 0.00 | 0.71 | 0.00 | 96 | 1010.1 |
| 20260510051531 | 11 | 187 | 0.0 | 0.0 | 0.00 | 0.71 | 0.00 | 96 | 1010.1 |
| 20260510050022 | 11 | 187 | 0.0 | 0.0 | 0.00 | 0.71 | 0.00 | 96 | 1010.2 |
| 20260510044522 | 11 | 187 | 0.0 | 0.0 | 0.00 | 0.71 | 0.00 | 96 | 1010.3 |
| 20260510043023 | 11 | 187 | 0.0 | 0.0 | 0.00 | 0.71 | 0.00 | 96 | 1010.3 |
| 20260510041519 | 10 | 187 | 0.0 | 0.0 | 0.00 | 0.71 | 0.00 | 96 | 1010.4 |
| 20260510040018 | 10 | 187 | 0.0 | 0.0 | 0.00 | 0.71 | 0.00 | 96 | 1010.4 |
| 20260510034520 | 10 | 187 | 0.0 | 0.0 | 0.00 | 0.71 | 0.71 | 96 | 1010.2 |
| 20260510033018 | 10 | 187 | 0.0 | 0.0 | 0.00 | 0.71 | 0.71 | 96 | 1010.1 |
| 20260510031517 | 10 | 187 | 0.0 | 0.0 | 0.00 | 0.71 | 0.71 | 96 | 1009.9 |
| 20260510030016 | 10 | 187 | 0.0 | 1.6 | 0.00 | 0.71 | 0.71 | 96 | 1009.8 |
| 20260510024516 | 10 | 187 | 0.0 | 0.0 | 0.00 | 0.71 | 0.71 | 95 | 1010.1 |
| 20260510023016 | 9 | 187 | 0.0 | 0.0 | 0.00 | 0.71 | 0.71 | 95 | 1010.2 |
| 20260510021520 | 10 | 187 | 0.0 | 0.0 | 0.00 | 0.71 | 0.71 | 94 | 1010.1 |
| 20260510020014 | 10 | 187 | 0.0 | 0.0 | 0.00 | 0.71 | 0.71 | 94 | 1010.0 |
| 20260510014515 | 10 | 187 | 0.0 | 0.0 | 0.00 | 0.71 | 0.71 | 94 | 1010.0 |
| 20260510013014 | 10 | 187 | 0.0 | 0.0 | 0.00 | 0.71 | 0.71 | 94 | 1010.1 |
| 20260510011513 | 10 | 187 | 0.0 | 0.0 | 0.00 | 0.71 | 0.71 | 93 | 1009.9 |
| 20260510010012 | 10 | 187 | 0.0 | 0.0 | 0.00 | 0.71 | 0.71 | 93 | 1009.6 |
| 20260510004511 | 11 | 187 | 0.0 | 0.0 | 0.00 | 0.71 | 0.71 | 93 | 1009.5 |
| 20260510003012 | 11 | 187 | 0.0 | 0.0 | 0.00 | 0.71 | 0.71 | 93 | 1009.3 |
| 20260510001510 | 11 | 187 | 0.0 | 0.0 | 0.00 | 0.71 | 0.71 | 93 | 1009.5 |
| 20260510000018 | 12 | 187 | 0.0 | 0.0 | 0.00 | 0.71 | 0.71 | 93 | 1009.4 |
| 20260509234510 | 12 | 187 | 0.0 | 0.0 | 0.00 | 0.71 | 0.71 | 93 | 1009.2 |
| 20260509233008 | 12 | 187 | 0.0 | 1.6 | 0.00 | 0.71 | 0.71 | 93 | 1009.0 |
| 20260509231507 | 12 | 187 | 0.0 | 8.0 | 0.00 | 0.71 | 0.71 | 93 | 1009.1 |
| 20260509230006 | 12 | 166 | 0.0 | 4.8 | 0.00 | 0.71 | 0.71 | 93 | 1009.0 |
| 20260509224504 | 12 | 167 | 1.6 | 8.0 | 0.00 | 0.71 | 0.71 | 93 | 1009.2 |
| 20260509223005 | 12 | 208 | 0.0 | 3.2 | 0.00 | 0.71 | 0.71 | 94 | 1009.5 |
| 20260509221504 | 12 | 208 | 0.0 | 4.8 | 0.05 | 0.71 | 0.71 | 93 | 1009.3 |
| 20260509220006 | 12 | 163 | 1.6 | 9.7 | 0.15 | 0.71 | 0.71 | 94 | 1009.4 |
| 20260509214501 | 12 | 52 | 0.0 | 3.2 | 0.23 | 0.71 | 0.71 | 94 | 1009.4 |
| 20260509213101 | 12 | 52 | 0.0 | 3.2 | 0.36 | 0.71 | 0.71 | 93 | 1009.7 |
| 20260509211602 | 12 | 52 | 0.0 | 1.6 | 0.36 | 0.66 | 0.66 | 93 | 1009.7 |
| 20260509210109 | 12 | 52 | 0.0 | 3.2 | 0.30 | 0.56 | 0.56 | 93 | 1009.6 |
| 20260509204558 | 12 | 52 | 0.0 | 0.0 | 0.30 | 0.48 | 0.48 | 93 | 1009.5 |
| 20260509203058 | 12 | 52 | 0.0 | 0.0 | 0.25 | 0.36 | 0.36 | 92 | 1009.6 |
| 20260509201558 | 12 | 52 | 0.0 | 3.2 | 0.20 | 0.30 | 0.30 | 91 | 1009.8 |
| 20260509200056 | 12 | 52 | 0.0 | 4.8 | 0.15 | 0.23 | 0.23 | 90 | 1009.9 |
| 20260509194555 | 12 | 29 | 0.0 | 3.2 | 0.10 | 0.18 | 0.18 | 88 | 1010.2 |
| 20260509193054 | 13 | 29 | 0.0 | 3.2 | 0.03 | 0.10 | 0.10 | 88 | 1010.1 |
| 20260509191555 | 13 | 54 | 0.0 | 1.6 | 0.05 | 0.10 | 0.10 | 89 | 1010.0 |